Location: Go�ngahuizen
(53.0821°N, 5.8849°E)
Time: 09:14:40
(UTC+00:00)

Cosmos 2333 Rocket - Pass Details

Date: 09 April 2020
Orbit: 841 x 861 km, 70.8° (Epoch: 01 June)

Event Time Altitude Azimuth Distance (km) Brightness Sun altitude
Rises 23:34:00 0° 328° (NNW) 3,409 6.2 -28.9°
Reaches altitude 10° 23:36:29 10° 332° (NNW) 2,471 5.4 -28.9°
Maximum altitude 23:42:07 62° 53° (NE) 951 2.5 -28.9°
Enters shadow 23:42:32 60° 75° (ENE) 965 2.4 -28.9°
